Location: Seven Kings
(51.5667°N, 0.1000°E)
Time: 05:32:59
(UTC+00:00)

MOS 1 Rocket - Pass Details

Date: 29 October 2020
Orbit: 615 x 829 km, 97.4° (Epoch: 25 November)

Event Time Altitude Azimuth Distance (km) Brightness Sun altitude
Rises 19:39:13 0° 9° (N) 3,025 6.7 -28.6°
Reaches altitude 10° 19:41:28 10° 3° (N) 2,137 5.9 -29.0°
Maximum altitude 19:45:57 47° 290° (WNW) 941 4.2 -29.7°
Drops below altitude 10° 19:50:40 10° 218° (SW) 2,253 6.1 -30.4°
Sets 19:53:05 0° 213° (SSW) 3,207 6.9 -30.7°
